Regional Weather Roundup
Issued by NWS

Home | Current Version | Previous Version | Graphics & Text | Print | Product List | Glossary On
Versions: 1 2 3 4 5 6 7 8 9 10 11 12 13 14 15 16 17 18 19 20 21 22 23 24 25 26 27 28 29 30 31 32 33 34 35 36 37 38 39 40 41 42 43 44 45 46 47 48 49 50
177
ASUS43 KLMK 041310
RWRKY
KENTUCKY REGIONAL WEATHER ROUNDUP
NATIONAL WEATHER SERVICE LOUISVILLE KY
800 AM EST SUN DEC 04 2016

NOTE "FAIR" INDICATES FEW OR NO CLOUDS BELOW 12,000 FEET
WITH NO SIGNIFICANT WEATHER AND/OR OBSTRUCTIONS TO VISIBILITY.

KYZ001>023-026-027-061>063-070>075-041400-
WESTERN AND SOUTH CENTRAL KENTUCKY

CITY           SKY/WX    TMP DP  RH WIND       PRES   REMARKS
PADUCAH        CLOUDY    40  37  89 E8        30.02F WCI  34
HENDERSON      CLOUDY    39  32  75 E8        30.08F WCI  34
OWENSBORO      CLOUDY    39  36  89 E8        30.10F WCI  33
HOPKINSVILLE   CLOUDY    40  40 100 E9        30.05F WCI  33
BOWLING GREEN  CLOUDY    40  39  97 E9        30.10F FOG     WCI  34
GLASGOW        RAIN     N/A N/A N/A E10       30.11F
$$

KYZ024-025-028>034-038-045-046-053-041400-
NORTH CENTRAL KENTUCKY

CITY           SKY/WX    TMP DP  RH WIND       PRES   REMARKS
LOUISVILLE/SDF LGT RAIN  41  31  67 E8        30.15F
LOUISVILLE/LOU CLOUDY    40  32  73 E3        30.16F
FORT KNOX      CLOUDY    37  36  93 E9        30.11F WCI  31
$$

KYZ035>037-039>044-047>052-055>060-089>105-041400-
NORTHEAST KENTUCKY

CITY           SKY/WX    TMP DP  RH WIND       PRES   REMARKS
LEXINGTON      CLOUDY    39  30  70 E5        30.19R
COVINGTON      CLOUDY    37  30  75 SE9       30.19F WCI  30
FRANKFORT      CLOUDY    38  31  76 E6        30.16F WCI  33
$$

KYZ054-064>069-076>088-106>120-041400-
SOUTHEAST KENTUCKY

CITY           SKY/WX    TMP DP  RH WIND       PRES   REMARKS
JACKSON        CLOUDY    36  29  75 CALM      30.16F
LONDON         CLOUDY    37  34  89 CALM      30.15F
SOMERSET       CLOUDY    36  36 100 CALM      30.17S
MIDDLESBORO    RAIN      38  38  97 CALM      30.18S
MONTICELLO     CLOUDY    39  38  96 W3        30.17R
$$





USA.gov is the U.S. government's official web portal to all federal, state and local government web resources and services.